,,,PA_Meas_PMT16A,,PR_Meas_QMR101_102,,RH_Meas_QMH101,,SR_Meas_QMS101,,TA_Meas_QMH101,,GenWind,,GenWind,
date,time,status,PA,status,PR,status,RH,status,SR,status,TA,status,DirAvg,status,SpdAvg,
2008-03-13, 00:00:04,VALID,1003.86,VALID,0,VALID,85.0696,VALID,0,VALID,26.0246,VALID,22,VALID,0.8,
2008-03-13, 00:01:04,VALID,1003.86,VALID,0,VALID,84.9094,VALID,0,VALID,26.0635,VALID,16,VALID,0.435156,
2008-03-13, 00:02:04,VALID,1003.86,VALID,0,VALID,85.1307,VALID,0,VALID,26.0635,VALID,16,VALID,0.498437,
2008-03-13, 00:03:04,VALID,1003.85,VALID,0,VALID,85.2451,VALID,0,VALID,26.0051,VALID,348,VALID,0.390234,
2008-03-13, 00:04:04,VALID,1003.81,VALID,0,VALID,85.9317,VALID,0,VALID,25.9077,VALID,342,VALID,0.5,
2008-03-13, 00:05:04,VALID,1003.81,VALID,0,VALID,86.6259,VALID,0,VALID,25.7324,VALID,348,VALID,0.600781,
2008-03-13, 00:06:04,VALID,1003.76,VALID,0,VALID,87.3812,VALID,0,VALID,25.596,VALID,345,VALID,0.887109,
2008-03-13, 00:07:04,VALID,1003.75,VALID,0,VALID,88.2661,VALID,0,VALID,25.4792,VALID,349,VALID,0.851953,
2008-03-13, 00:08:04,VALID,1003.75,VALID,0,VALID,89.0824,VALID,0,VALID,25.3233,VALID,353,VALID,0.760938,
2008-03-13, 00:09:04,VALID,1003.72,VALID,0,VALID,89.6851,VALID,0,VALID,25.1267,VALID,337,VALID,0.314453,
2008-03-13, 00:10:04,VALID,1003.7,VALID,0,VALID,90.4862,VALID,0,VALID,25.0312,VALID,348,VALID,0.971094,
2008-03-13, 00:11:04,VALID,1003.69,VALID,0,VALID,91.0888,VALID,0,VALID,24.9143,VALID,352,VALID,0.912891,
2008-03-13, 00:12:04,VALID,1003.66,VALID,0,VALID,91.4779,VALID,0,VALID,24.7975,VALID,321,VALID,0.645703,
2008-03-13, 00:13:04,VALID,1003.66,VALID,0,VALID,92.0806,VALID,0,VALID,24.7196,VALID,351,VALID,1.25625,
2008-03-13, 00:14:04,VALID,1003.67,VALID,0,VALID,92.4239,VALID,0,VALID,24.6593,VALID,328,VALID,0.369531,
2008-03-13, 00:15:04,VALID,1003.69,VALID,0,VALID,92.668,VALID,0,VALID,24.6204,VALID,354,VALID,0.950391,
2008-03-13, 00:16:04,VALID,1003.7,VALID,0,VALID,92.8206,VALID,0,VALID,24.5833,VALID,341,VALID,0.736328,
2008-03-13, 00:17:04,VALID,1003.73,VALID,0,VALID,92.9884,VALID,0,VALID,24.5638,VALID,269,VALID,0.354297,
2008-03-13, 00:18:04,VALID,1003.72,VALID,0,VALID,93.1257,VALID,0,VALID,24.5425,VALID,322,VALID,0.115234,
2008-03-13, 00:19:04,VALID,1003.72,VALID,0,VALID,93.2097,VALID,0,VALID,24.5443,VALID,344,VALID,1.08828,
2008-03-13, 00:20:04,VALID,1003.7,VALID,0,VALID,93.1715,VALID,0,VALID,24.5443,VALID,354,VALID,0.49375,
2008-03-13, 00:21:04,VALID,1003.66,VALID,0,VALID,93.1334,VALID,0,VALID,24.4841,VALID,354,VALID,0.0769531,
2008-03-13, 00:22:04,VALID,1003.64,VALID,0,VALID,93.3012,VALID,0,VALID,24.5249,VALID,336,VALID,0.273828,
2008-03-13, 00:23:04,VALID,1003.66,VALID,0,VALID,93.3546,VALID,0,VALID,24.5054,VALID,351,VALID,0.776953,
2008-03-13, 00:24:04,VALID,1003.61,VALID,0,VALID,93.3546,VALID,0,VALID,24.5054,VALID,352,VALID,0.692187,
2008-03-13, 00:25:04,VALID,1003.61,VALID,0,VALID,93.2859,VALID,0,VALID,24.4859,VALID,355,VALID,0.582422,
2008-03-13, 00:26:04,VALID,1003.6,VALID,0,VALID,93.3394,VALID,0,VALID,24.4665,VALID,325,VALID,0.655078,
2008-03-13, 00:27:04,VALID,1003.57,VALID,0,VALID,93.4767,VALID,0,VALID,24.4665,VALID,356,VALID,0.631641,
2008-03-13, 00:28:04,VALID,1003.55,VALID,0,VALID,93.4309,VALID,0,VALID,24.5035,VALID,358,VALID,0.588281,
2008-03-13, 00:29:04,VALID,1003.57,VALID,0,VALID,93.2783,VALID,0,VALID,24.5054,VALID,352,VALID,0.665625,
2008-03-13, 00:30:04,VALID,1003.58,VALID,0,VALID,93.3317,VALID,0,VALID,24.5249,VALID,352,VALID,1.19219,
2008-03-13, 00:31:04,VALID,1003.54,VALID,0,VALID,93.1181,VALID,0,VALID,24.5443,VALID,360,VALID,0.661328,
2008-03-13, 00:32:04,VALID,1003.55,VALID,0,VALID,93.0952,VALID,0,VALID,24.5638,VALID,355,VALID,1.06758,
2008-03-13, 00:33:04,VALID,1003.56,VALID,0,VALID,92.9426,VALID,0,VALID,24.5425,VALID,344,VALID,0.816406,
2008-03-13, 00:34:04,VALID,1003.59,VALID,0,VALID,92.8816,VALID,0,VALID,24.5425,VALID,353,VALID,0.800781,
2008-03-13, 00:35:04,VALID,1003.57,VALID,0,VALID,92.8358,VALID,0,VALID,24.5035,VALID,354,VALID,0.839844,
2008-03-13, 00:36:04,VALID,1003.57,VALID,0,VALID,93.1181,VALID,0,VALID,24.4859,VALID,335,VALID,0.425,
2008-03-13, 00:37:04,VALID,1003.56,VALID,0,VALID,93.08,VALID,0,VALID,24.5054,VALID,342,VALID,0.797656,
2008-03-13, 00:38:04,VALID,1003.56,VALID,0,VALID,92.9808,VALID,0,VALID,24.4841,VALID,353,VALID,0.794922,
2008-03-13, 00:39:04,VALID,1003.52,VALID,0,VALID,93.08,VALID,0,VALID,24.5035,VALID,344,VALID,0.837109,
2008-03-13, 00:40:04,VALID,1003.52,VALID,0,VALID,93.0952,VALID,0.100563,VALID,24.5212,VALID,352,VALID,0.286328,
2008-03-13, 00:41:04,VALID,1003.53,VALID,0,VALID,92.9808,VALID,0,VALID,24.5406,VALID,349,VALID,0.578125,
2008-03-13, 00:42:04,VALID,1003.52,VALID,0,VALID,92.7519,VALID,0.100563,VALID,24.562,VALID,353,VALID,0.808984,
2008-03-13, 00:43:04,VALID,1003.5,VALID,0,VALID,92.729,VALID,0.100563,VALID,24.523,VALID,360,VALID,0.429688,
2008-03-13, 00:44:04,VALID,1003.5,VALID,0,VALID,92.8053,VALID,0.100563,VALID,24.4238,VALID,3,VALID,0.719141,
2008-03-13, 00:45:04,VALID,1003.47,VALID,0,VALID,92.874,VALID,0.100563,VALID,24.3849,VALID,5,VALID,0.670313,
2008-03-13, 00:46:04,VALID,1003.49,VALID,0,VALID,93.1868,VALID,0,VALID,24.3283,VALID,359,VALID,0.881641,
2008-03-13, 00:47:04,VALID,1003.44,VALID,0,VALID,93.3241,VALID,0,VALID,24.2504,VALID,359,VALID,0.861719,
2008-03-13, 00:48:04,VALID,1003.42,VALID,0,VALID,93.5453,VALID,0.100563,VALID,24.2115,VALID,360,VALID,0.750391,
2008-03-13, 00:49:04,VALID,1003.4,VALID,0,VALID,93.675,VALID,0.100563,VALID,24.1318,VALID,352,VALID,0.825781,
2008-03-13, 00:50:04,VALID,1003.39,VALID,0,VALID,93.9039,VALID,0.100563,VALID,24.1336,VALID,350,VALID,0.773438,
2008-03-13, 00:51:04,VALID,1003.38,VALID,0,VALID,94.0183,VALID,0,VALID,24.1142,VALID,351,VALID,0.786328,
2008-03-13, 00:52:04,VALID,1003.39,VALID,0,VALID,94.2319,VALID,0.100563,VALID,24.0734,VALID,353,VALID,0.896875,
2008-03-13, 00:53:04,VALID,1003.35,VALID,0,VALID,94.209,VALID,0,VALID,24.0752,VALID,353,VALID,0.783203,
2008-03-13, 00:54:04,VALID,1003.35,VALID,0,VALID,94.3845,VALID,0,VALID,24.1355,VALID,348,VALID,0.920703,
2008-03-13, 00:55:04,VALID,1003.34,VALID,0,VALID,94.3311,VALID,0,VALID,24.2133,VALID,346,VALID,0.719531,
2008-03-13, 00:56:04,VALID,1003.35,VALID,0,VALID,94.0565,VALID,0,VALID,24.2504,VALID,351,VALID,0.925781,
2008-03-13, 00:57:04,VALID,1003.37,VALID,0,VALID,93.82,VALID,0,VALID,24.3088,VALID,347,VALID,0.78125,
2008-03-13, 00:58:04,VALID,1003.37,VALID,0,VALID,93.5301,VALID,0,VALID,24.3886,VALID,332,VALID,0.711328,
2008-03-13, 00:59:04,VALID,1003.34,VALID,0,VALID,93.0952,VALID,0,VALID,24.4859,VALID,351,VALID,0.841016,
2008-03-13, 01:00:04,VALID,1003.34,VALID,0,VALID,92.668,VALID,0,VALID,24.5638,VALID,356,VALID,0.889453,
2008-03-13, 01:01:04,VALID,1003.3,VALID,0,VALID,92.4315,VALID,0,VALID,24.5425,VALID,3,VALID,0.707422,
2008-03-13, 01:02:04,VALID,1003.29,VALID,0,VALID,92.3323,VALID,0,VALID,24.562,VALID,349,VALID,0.863281,
2008-03-13, 01:03:04,VALID,1003.29,VALID,0,VALID,92.1492,VALID,0,VALID,24.5833,VALID,354,VALID,0.749219,
2008-03-13, 01:04:04,VALID,1003.28,VALID,0,VALID,91.7983,VALID,0,VALID,24.6417,VALID,4,VALID,1.08555,
2008-03-13, 01:05:04,VALID,1003.33,VALID,0,VALID,91.2338,VALID,0,VALID,24.7196,VALID,11,VALID,0.648047,
2008-03-13, 01:06:04,VALID,1003.3,VALID,0,VALID,90.8218,VALID,0,VALID,24.817,VALID,14,VALID,0.259766,
2008-03-13, 01:07:04,VALID,1003.34,VALID,0,VALID,90.4404,VALID,0,VALID,24.8754,VALID,14,VALID,0.0347656,
2008-03-13, 01:08:04,VALID,1003.34,VALID,0,VALID,90.1505,VALID,0,VALID,24.9106,VALID,34,VALID,0.343359,
2008-03-13, 01:09:04,VALID,1003.35,VALID,0,VALID,89.9369,VALID,0.100563,VALID,24.9106,VALID,46,VALID,0.394922,
2008-03-13, 01:10:04,VALID,1003.38,VALID,0,VALID,89.9369,VALID,0.100563,VALID,24.9514,VALID,28,VALID,0.790234,
2008-03-13, 01:11:04,VALID,1003.38,VALID,0,VALID,89.4257,VALID,0.100563,VALID,24.969,VALID,57,VALID,1.24648,
2008-03-13, 01:12:04,VALID,1003.37,VALID,0,VALID,88.022,VALID,0.100563,VALID,25.3,VALID,3,VALID,1.00898,
2008-03-13, 01:13:04,VALID,1003.39,VALID,0,VALID,87.1447,VALID,0.100563,VALID,25.3779,VALID,331,VALID,0.596484,
2008-03-13, 01:14:04,VALID,1003.36,VALID,0,VALID,85.947,VALID,0.100563,VALID,25.5357,VALID,25,VALID,1.53906,
2008-03-13, 01:15:04,VALID,1003.4,VALID,0,VALID,85.8936,VALID,0.100563,VALID,25.6506,VALID,4,VALID,0.575781,
2008-03-13, 01:16:04,VALID,1003.39,VALID,0,VALID,86.0538,VALID,0.100563,VALID,25.5921,VALID,2,VALID,0.654688,
2008-03-13, 01:17:04,VALID,1003.41,VALID,0,VALID,86.5115,VALID,0,VALID,25.5142,VALID,348,VALID,0.613672,
2008-03-13, 01:18:04,VALID,1003.36,VALID,0,VALID,86.5268,VALID,0.100563,VALID,25.4967,VALID,343,VALID,0.719922,
2008-03-13, 01:19:04,VALID,1003.32,VALID,0,VALID,86.687,VALID,0.100563,VALID,25.4363,VALID,346,VALID,0.600391,
2008-03-13, 01:20:04,VALID,1003.33,VALID,0,VALID,87.5185,VALID,0.100563,VALID,25.3604,VALID,12,VALID,1.03398,
2008-03-13, 01:21:04,VALID,1003.34,VALID,0,VALID,88.2509,VALID,0,VALID,25.1637,VALID,11,VALID,0.973047,
2008-03-13, 01:22:04,VALID,1003.3,VALID,0,VALID,88.9527,VALID,0.100563,VALID,25.0079,VALID,10,VALID,0.723828,
2008-03-13, 01:23:04,VALID,1003.28,VALID,0,VALID,89.7156,VALID,0,VALID,24.854,VALID,7,VALID,0.684375,
2008-03-13, 01:24:04,VALID,1003.27,VALID,0,VALID,90.2649,VALID,0,VALID,24.778,VALID,359,VALID,0.696875,
2008-03-13, 01:25:04,VALID,1003.29,VALID,0,VALID,90.8142,VALID,0,VALID,24.6807,VALID,355,VALID,0.782422,
2008-03-13, 01:26:04,VALID,1003.3,VALID,0,VALID,91.1117,VALID,0,VALID,24.5814,VALID,349,VALID,0.569531,
2008-03-13, 01:27:04,VALID,1003.34,VALID,0,VALID,91.2796,VALID,0,VALID,24.5833,VALID,339,VALID,0.553516,
2008-03-13, 01:28:04,VALID,1003.34,VALID,0,VALID,91.4245,VALID,0,VALID,24.523,VALID,342,VALID,0.330078,
2008-03-13, 01:29:04,VALID,1003.36,VALID,0,VALID,91.6686,VALID,0,VALID,24.5054,VALID,15,VALID,0.492188,
2008-03-13, 01:30:04,VALID,1003.36,VALID,0,VALID,91.6457,VALID,0,VALID,24.4859,VALID,357,VALID,0.589063,
2008-03-13, 01:31:04,VALID,1003.35,VALID,0,VALID,91.3177,VALID,0,VALID,24.5638,VALID,306,VALID,0.563281,
2008-03-13, 01:32:04,VALID,1003.35,VALID,0,VALID,90.4938,VALID,0,VALID,24.7391,VALID,25,VALID,0.880469,
2008-03-13, 01:33:04,VALID,1003.26,VALID,0,VALID,90.3259,VALID,0,VALID,24.778,VALID,25,VALID,0.430859,
2008-03-13, 01:34:04,VALID,1003.25,VALID,0,VALID,89.4791,VALID,0,VALID,24.7956,VALID,311,VALID,0.739062,
2008-03-13, 01:35:04,VALID,1003.18,VALID,0,VALID,89.3266,VALID,0,VALID,24.9125,VALID,348,VALID,0.785937,
2008-03-13, 01:36:04,VALID,1003.19,VALID,0,VALID,89.5554,VALID,0,VALID,24.8735,VALID,31,VALID,0.971484,
2008-03-13, 01:37:04,VALID,1003.12,VALID,0,VALID,90.0132,VALID,0,VALID,24.778,VALID,14,VALID,0.402344,
2008-03-13, 01:38:04,VALID,1003.13,VALID,0,VALID,90.4327,VALID,0,VALID,24.6983,VALID,5,VALID,0.560547,
2008-03-13, 01:39:04,VALID,1003.07,VALID,0,VALID,90.6464,VALID,0,VALID,24.6398,VALID,19,VALID,0.363281,
2008-03-13, 01:40:04,VALID,1003.08,VALID,0,VALID,90.509,VALID,0,VALID,24.6204,VALID,11,VALID,1.48711,
2008-03-13, 01:41:04,VALID,1003.09,VALID,0,VALID,90.1276,VALID,0,VALID,24.7586,VALID,352,VALID,0.841406,
2008-03-13, 01:42:04,VALID,1003.09,VALID,0,VALID,90.1047,VALID,0,VALID,24.7586,VALID,354,VALID,0.712891,
2008-03-13, 01:43:04,VALID,1003.03,VALID,0,VALID,88.9299,VALID,0,VALID,24.9533,VALID,12,VALID,1.50937,
2008-03-13, 01:44:04,VALID,1003.02,VALID,0,VALID,87.8923,VALID,0,VALID,25.1286,VALID,343,VALID,0.817578,
2008-03-13, 01:45:04,VALID,1003.02,VALID,0,VALID,87.961,VALID,0,VALID,25.1656,VALID,352,VALID,1.05547,
2008-03-13, 01:46:04,VALID,1003.01,VALID,0,VALID,87.9076,VALID,0,VALID,25.1656,VALID,343,VALID,0.749219,
2008-03-13, 01:47:04,VALID,1003.03,VALID,0,VALID,87.7474,VALID,0,VALID,25.1656,VALID,340,VALID,0.644922,
2008-03-13, 01:48:04,VALID,1002.99,VALID,0,VALID,88.0373,VALID,0,VALID,25.1656,VALID,11,VALID,0.389453,
2008-03-13, 01:49:04,VALID,1003,VALID,0,VALID,88.1212,VALID,0,VALID,25.1286,VALID,8,VALID,0.508984,
2008-03-13, 01:50:04,VALID,1002.96,VALID,0,VALID,88.2356,VALID,0,VALID,25.1091,VALID,335,VALID,0.642187,
2008-03-13, 01:51:04,VALID,1002.97,VALID,0,VALID,88.7391,VALID,0,VALID,25.0488,VALID,351,VALID,0.811719,
2008-03-13, 01:52:04,VALID,1002.91,VALID,0,VALID,88.9604,VALID,0,VALID,24.9338,VALID,346,VALID,0.922266,
2008-03-13, 01:53:04,VALID,1002.87,VALID,0,VALID,88.9604,VALID,0,VALID,24.9319,VALID,332,VALID,0.641406,
2008-03-13, 01:54:04,VALID,1002.85,VALID,0,VALID,89.1358,VALID,0,VALID,24.9514,VALID,358,VALID,1.02031,
2008-03-13, 01:55:04,VALID,1002.81,VALID,0,VALID,89.4105,VALID,0,VALID,24.8754,VALID,350,VALID,0.579297,
2008-03-13, 01:56:04,VALID,1002.79,VALID,0,VALID,89.9674,VALID,0,VALID,24.778,VALID,10,VALID,0.503125,
2008-03-13, 01:57:04,VALID,1002.75,VALID,0,VALID,90.3488,VALID,0,VALID,24.6983,VALID,348,VALID,0.841016,
2008-03-13, 01:58:04,VALID,1002.75,VALID,0,VALID,90.4251,VALID,0,VALID,24.7001,VALID,19,VALID,1.23555,
2008-03-13, 01:59:04,VALID,1002.72,VALID,0,VALID,90.5396,VALID,0,VALID,24.6398,VALID,334,VALID,0.779297,
2008-03-13, 02:00:04,VALID,1002.7,VALID,0,VALID,90.6616,VALID,0,VALID,24.6222,VALID,358,VALID,1.0375,
2008-03-13, 02:01:04,VALID,1002.65,VALID,0,VALID,90.9668,VALID,0,VALID,24.5249,VALID,352,VALID,0.980469,
2008-03-13, 02:02:04,VALID,1002.62,VALID,0,VALID,91.3177,VALID,0,VALID,24.4665,VALID,355,VALID,1.00781,
2008-03-13, 02:03:04,VALID,1002.64,VALID,0,VALID,91.3482,VALID,0,VALID,24.4451,VALID,11,VALID,1.2293,
2008-03-13, 02:04:04,VALID,1002.62,VALID,0,VALID,91.0125,VALID,0,VALID,24.562,VALID,2,VALID,0.894531,
2008-03-13, 02:05:04,VALID,1002.62,VALID,0,VALID,90.7455,VALID,0,VALID,24.6028,VALID,359,VALID,0.883203,
2008-03-13, 02:06:04,VALID,1002.61,VALID,0,VALID,90.0132,VALID,0,VALID,24.7001,VALID,343,VALID,1.89531,
2008-03-13, 02:07:04,VALID,1002.56,VALID,0,VALID,89.1969,VALID,0,VALID,24.8949,VALID,357,VALID,1.38281,
2008-03-13, 02:08:04,VALID,1002.56,VALID,0,VALID,88.8612,VALID,0,VALID,24.9728,VALID,345,VALID,0.8875,
2008-03-13, 02:09:04,VALID,1002.52,VALID,0,VALID,89.174,VALID,0,VALID,24.9143,VALID,1,VALID,0.90625,
2008-03-13, 02:10:04,VALID,1002.53,VALID,0,VALID,89.3647,VALID,0,VALID,24.8151,VALID,24,VALID,0.443359,
2008-03-13, 02:11:04,VALID,1002.53,VALID,0,VALID,89.38,VALID,0,VALID,24.817,VALID,1,VALID,0.944531,
2008-03-13, 02:12:04,VALID,1002.54,VALID,0,VALID,89.3571,VALID,0,VALID,24.8364,VALID,21,VALID,0.942578,
2008-03-13, 02:13:04,VALID,1002.56,VALID,0,VALID,88.7925,VALID,0,VALID,24.9941,VALID,15,VALID,0.864453,
2008-03-13, 02:14:04,VALID,1002.53,VALID,0,VALID,87.9,VALID,0,VALID,25.0293,VALID,14,VALID,0.882031,
2008-03-13, 02:15:04,VALID,1002.55,VALID,0,VALID,87.8313,VALID,0,VALID,25.1091,VALID,351,VALID,0.7125,
2008-03-13, 02:16:04,VALID,1002.55,VALID,0,VALID,87.8466,VALID,0,VALID,25.1267,VALID,354,VALID,0.701563,
2008-03-13, 02:17:04,VALID,1002.56,VALID,0,VALID,87.7779,VALID,0,VALID,25.1091,VALID,20,VALID,1.12695,
2008-03-13, 02:18:04,VALID,1002.52,VALID,0,VALID,86.8395,VALID,0,VALID,25.2649,VALID,19,VALID,1.28398,
2008-03-13, 02:19:04,VALID,1002.54,VALID,0,VALID,86.0461,VALID,0,VALID,25.4207,VALID,17,VALID,1.37227,
2008-03-13, 02:20:04,VALID,1002.5,VALID,0,VALID,84.856,VALID,0,VALID,25.596,VALID,84,VALID,0.843359,
2008-03-13, 02:21:04,VALID,1002.52,VALID,0,VALID,84.7569,VALID,0,VALID,25.6934,VALID,3,VALID,0.955078,
2008-03-13, 02:22:04,VALID,1002.51,VALID,0,VALID,84.6119,VALID,0,VALID,25.6739,VALID,23,VALID,0.764844,
2008-03-13, 02:23:04,VALID,1002.52,VALID,0,VALID,84.4975,VALID,0,VALID,25.6525,VALID,19,VALID,1.01055,
2008-03-13, 02:24:04,VALID,1002.53,VALID,0,VALID,84.4212,VALID,0,VALID,25.633,VALID,32,VALID,1.35312,
2008-03-13, 02:25:04,VALID,1002.56,VALID,0,VALID,84.055,VALID,0,VALID,25.7694,VALID,23,VALID,1.41836,
2008-03-13, 02:26:04,VALID,1002.53,VALID,0,VALID,83.521,VALID,0,VALID,25.8687,VALID,37,VALID,1.45469,
2008-03-13, 02:27:04,VALID,1002.48,VALID,0,VALID,83.1853,VALID,0,VALID,25.9856,VALID,25,VALID,1.37695,
2008-03-13, 02:28:04,VALID,1002.5,VALID,0,VALID,82.8649,VALID,0,VALID,25.9661,VALID,14,VALID,1.64258,
2008-03-13, 02:29:04,VALID,1002.45,VALID,0,VALID,82.7352,VALID,0,VALID,25.9642,VALID,2,VALID,0.864844,
2008-03-13, 02:30:04,VALID,1002.39,VALID,0,VALID,82.3461,VALID,0,VALID,26.0246,VALID,20,VALID,1.41914,
2008-03-13, 02:31:04,VALID,1002.38,VALID,0,VALID,82.1478,VALID,0,VALID,26.0635,VALID,4,VALID,1.01563,
2008-03-13, 02:32:04,VALID,1002.37,VALID,0,VALID,82.3614,VALID,0,VALID,26.083,VALID,14,VALID,1.2043,
2008-03-13, 02:33:04,VALID,1002.36,VALID,0,VALID,82.3995,VALID,0,VALID,26.0226,VALID,66,VALID,0.782422,
2008-03-13, 02:34:04,VALID,1002.38,VALID,0,VALID,82.2012,VALID,0,VALID,26.0246,VALID,36,VALID,0.744531,
2008-03-13, 02:35:04,VALID,1002.35,VALID,0,VALID,81.8655,VALID,0,VALID,26.0635,VALID,8,VALID,1.75117,
2008-03-13, 02:36:04,VALID,1002.36,VALID,0,VALID,81.4459,VALID,0,VALID,26.1999,VALID,26,VALID,1.59219,
2008-03-13, 02:37:04,VALID,1002.35,VALID,0,VALID,81.1103,VALID,0,VALID,26.2174,VALID,22,VALID,1.19531,
2008-03-13, 02:38:04,VALID,1002.32,VALID,0,VALID,80.4999,VALID,0,VALID,26.2953,VALID,26,VALID,1.80859,
2008-03-13, 02:39:04,VALID,1002.32,VALID,0,VALID,80.5381,VALID,0,VALID,26.3733,VALID,8,VALID,1.66797,
2008-03-13, 02:40:04,VALID,1002.32,VALID,0,VALID,80.416,VALID,0,VALID,26.3733,VALID,10,VALID,1.18086,
2008-03-13, 02:41:04,VALID,1002.3,VALID,0,VALID,80.3626,VALID,0,VALID,26.3343,VALID,29,VALID,1.10938,
2008-03-13, 02:42:04,VALID,1002.33,VALID,0,VALID,80.4923,VALID,0,VALID,26.3148,VALID,22,VALID,1.58906,
2008-03-13, 02:43:04,VALID,1002.33,VALID,0,VALID,80.0651,VALID,0,VALID,26.3148,VALID,8,VALID,2.29492,
2008-03-13, 02:44:04,VALID,1002.35,VALID,0,VALID,79.9125,VALID,0,VALID,26.3927,VALID,26,VALID,1.04922,
2008-03-13, 02:45:04,VALID,1002.37,VALID,0,VALID,79.142,VALID,0,VALID,26.4707,VALID,27,VALID,1.75312,
2008-03-13, 02:46:04,VALID,1002.39,VALID,0,VALID,79.3175,VALID,0.100563,VALID,26.5486,VALID,30,VALID,0.717188,
2008-03-13, 02:47:04,VALID,1002.38,VALID,0,VALID,79.4548,VALID,0,VALID,26.5076,VALID,2,VALID,0.999609,
2008-03-13, 02:48:04,VALID,1002.37,VALID,0,VALID,79.287,VALID,0,VALID,26.4707,VALID,16,VALID,1.95117,
2008-03-13, 02:49:04,VALID,1002.42,VALID,0,VALID,79.4166,VALID,0,VALID,26.4512,VALID,36,VALID,1.2,
2008-03-13, 02:50:04,VALID,1002.45,VALID,0,VALID,79.821,VALID,0.100563,VALID,26.4707,VALID,20,VALID,0.851172,
2008-03-13, 02:51:04,VALID,1002.49,VALID,0,VALID,79.1954,VALID,0,VALID,26.5116,VALID,26,VALID,2.05234,
2008-03-13, 02:52:04,VALID,1002.5,VALID,0,VALID,78.7987,VALID,0,VALID,26.5291,VALID,32,VALID,1.93945,
2008-03-13, 02:53:04,VALID,1002.49,VALID,0,VALID,78.9437,VALID,0,VALID,26.5701,VALID,356,VALID,2.00117,
2008-03-13, 02:54:04,VALID,1002.48,VALID,0,VALID,78.936,VALID,0,VALID,26.5096,VALID,20,VALID,1.93398,
2008-03-13, 02:55:04,VALID,1002.48,VALID,0,VALID,79.3404,VALID,0,VALID,26.5486,VALID,8,VALID,0.839063,
2008-03-13, 02:56:04,VALID,1002.47,VALID,0,VALID,79.3327,VALID,0,VALID,26.5096,VALID,1,VALID,1.14453,
2008-03-13, 02:57:04,VALID,1002.47,VALID,0,VALID,79.0505,VALID,0,VALID,26.5701,VALID,25,VALID,1.05391,
2008-03-13, 02:58:04,VALID,1002.5,VALID,0,VALID,79.0047,VALID,0,VALID,26.5506,VALID,19,VALID,1.29844,
2008-03-13, 02:59:04,VALID,1002.53,VALID,0,VALID,79.1802,VALID,0.100563,VALID,26.4687,VALID,26,VALID,1.57266,
2008-03-13, 03:00:04,VALID,1002.53,VALID,0,VALID,79.1573,VALID,0,VALID,26.4901,VALID,20,VALID,1.77305,
2008-03-13, 03:01:04,VALID,1002.53,VALID,0,VALID,79.1954,VALID,0,VALID,26.5311,VALID,18,VALID,1.46758,
2008-03-13, 03:02:04,VALID,1002.56,VALID,0,VALID,78.9665,VALID,0,VALID,26.5506,VALID,17,VALID,1.41133,
2008-03-13, 03:03:04,VALID,1002.6,VALID,0,VALID,79.1802,VALID,0,VALID,26.5096,VALID,11,VALID,0.866406,
2008-03-13, 03:04:04,VALID,1002.61,VALID,0,VALID,79.6684,VALID,0,VALID,26.4512,VALID,8,VALID,0.871484,
2008-03-13, 03:05:04,VALID,1002.63,VALID,0,VALID,79.2564,VALID,0,VALID,26.4512,VALID,3,VALID,1.02539,
2008-03-13, 03:06:04,VALID,1002.66,VALID,0,VALID,79.1267,VALID,0,VALID,26.4727,VALID,30,VALID,1.61992,
2008-03-13, 03:07:04,VALID,1002.67,VALID,0,VALID,79.4243,VALID,0,VALID,26.4707,VALID,31,VALID,0.424219,
2008-03-13, 03:08:04,VALID,1002.66,VALID,0,VALID,79.5845,VALID,0,VALID,26.4122,VALID,18,VALID,0.626953,
2008-03-13, 03:09:04,VALID,1002.69,VALID,0,VALID,79.8973,VALID,0,VALID,26.3927,VALID,43,VALID,0.942187,
2008-03-13, 03:10:04,VALID,1002.72,VALID,0,VALID,80.7136,VALID,0.100563,VALID,26.3363,VALID,10,VALID,0.708203,
2008-03-13, 03:11:04,VALID,1002.71,VALID,0,VALID,80.3703,VALID,0,VALID,26.2389,VALID,18,VALID,1.07344,
2008-03-13, 03:12:04,VALID,1002.74,VALID,0,VALID,80.8738,VALID,0.100563,VALID,26.1979,VALID,11,VALID,0.660547,
2008-03-13, 03:13:04,VALID,1002.74,VALID,0,VALID,81.2247,VALID,0.100563,VALID,26.12,VALID,13,VALID,0.430078,
2008-03-13, 03:14:04,VALID,1002.77,VALID,0,VALID,81.7206,VALID,0,VALID,26.0421,VALID,58,VALID,0.441016,
2008-03-13, 03:15:04,VALID,1002.78,VALID,0,VALID,81.7587,VALID,0,VALID,25.9447,VALID,33,VALID,0.462891,
2008-03-13, 03:16:04,VALID,1002.81,VALID,0,VALID,82.1249,VALID,0.100563,VALID,25.9252,VALID,23,VALID,0.793359,
2008-03-13, 03:17:04,VALID,1002.8,VALID,0,VALID,82.514,VALID,0,VALID,25.8473,VALID,27,VALID,0.749609,
2008-03-13, 03:18:04,VALID,1002.83,VALID,0,VALID,82.6284,VALID,0,VALID,25.8278,VALID,30,VALID,0.442578,
2008-03-13, 03:19:04,VALID,1002.81,VALID,0,VALID,82.7352,VALID,0,VALID,25.7889,VALID,352,VALID,0.641797,
2008-03-13, 03:20:04,VALID,1002.79,VALID,0,VALID,82.8725,VALID,0.100563,VALID,25.7499,VALID,30,VALID,0.538281,
2008-03-13, 03:21:04,VALID,1002.77,VALID,0,VALID,83.5744,VALID,0.100563,VALID,25.7109,VALID,13,VALID,0.741406,
2008-03-13, 03:22:04,VALID,1002.76,VALID,0,VALID,83.2997,VALID,0,VALID,25.7324,VALID,14,VALID,1.05938,
2008-03-13, 03:23:04,VALID,1002.76,VALID,0,VALID,83.2387,VALID,0.100563,VALID,25.7109,VALID,18,VALID,0.516797,
2008-03-13, 03:24:04,VALID,1002.75,VALID,0,VALID,83.5439,VALID,0,VALID,25.672,VALID,30,VALID,0.826563,
2008-03-13, 03:25:04,VALID,1002.73,VALID,0,VALID,83.4752,VALID,0.100563,VALID,25.6525,VALID,19,VALID,0.648438,
2008-03-13, 03:26:04,VALID,1002.73,VALID,0,VALID,83.5668,VALID,0.100563,VALID,25.6915,VALID,31,VALID,0.678906,
2008-03-13, 03:27:04,VALID,1002.71,VALID,0,VALID,83.7575,VALID,0.100563,VALID,25.633,VALID,31,VALID,0.0292969,
2008-03-13, 03:28:04,VALID,1002.71,VALID,0,VALID,83.2769,VALID,0,VALID,25.6136,VALID,19,VALID,0.774609,
2008-03-13, 03:29:04,VALID,1002.73,VALID,0,VALID,83.3455,VALID,0.100563,VALID,25.633,VALID,16,VALID,0.848437,
2008-03-13, 03:30:04,VALID,1002.72,VALID,0,VALID,82.8496,VALID,0,VALID,25.672,VALID,8,VALID,0.869141,
2008-03-13, 03:31:04,VALID,1002.73,VALID,0,VALID,82.5826,VALID,0.100563,VALID,25.7109,VALID,350,VALID,1.08477,
2008-03-13, 03:32:04,VALID,1002.7,VALID,0,VALID,83.3684,VALID,0,VALID,25.7109,VALID,13,VALID,0.557813,
2008-03-13, 03:33:04,VALID,1002.72,VALID,0,VALID,82.7352,VALID,0.100563,VALID,25.6915,VALID,34,VALID,0.591406,
2008-03-13, 03:34:04,VALID,1002.76,VALID,0,VALID,83.0785,VALID,0.100563,VALID,25.672,VALID,48,VALID,0.231641,
2008-03-13, 03:35:04,VALID,1002.79,VALID,0,VALID,83.0938,VALID,0,VALID,25.672,VALID,39,VALID,0.560938,
2008-03-13, 03:36:04,VALID,1002.75,VALID,0,VALID,82.4911,VALID,0.100563,VALID,25.7109,VALID,31,VALID,0.664063,
2008-03-13, 03:37:04,VALID,1002.77,VALID,0,VALID,82.3766,VALID,0.100563,VALID,25.8278,VALID,28,VALID,1.07148,
2008-03-13, 03:38:04,VALID,1002.8,VALID,0,VALID,81.7053,VALID,0.100563,VALID,25.9057,VALID,348,VALID,1.33047,
2008-03-13, 03:39:04,VALID,1002.79,VALID,0,VALID,81.8274,VALID,0,VALID,26.0051,VALID,23,VALID,1.0543,
2008-03-13, 03:40:04,VALID,1002.76,VALID,0,VALID,81.1255,VALID,0,VALID,25.9447,VALID,17,VALID,1.19492,
2008-03-13, 03:41:04,VALID,1002.75,VALID,0,VALID,80.9653,VALID,0,VALID,26.0226,VALID,9,VALID,1.38984,
2008-03-13, 03:42:04,VALID,1002.7,VALID,0,VALID,81.2323,VALID,0,VALID,26.1415,VALID,11,VALID,0.544922,
2008-03-13, 03:43:04,VALID,1002.71,VALID,0,VALID,81.3925,VALID,0,VALID,26.0421,VALID,33,VALID,0.65,
2008-03-13, 03:44:04,VALID,1002.68,VALID,0,VALID,81.7358,VALID,0,VALID,25.9642,VALID,28,VALID,0.567969,